• Join FlightAware (Why Join?)
  • Login
  • US Flag 
08:30PM EST


 

Airport Tracker/Info


-or-


 

Live Flight TrackerFlight Track Log ✈ N450S ✈ 19-Apr-2012 ✈ KSKY - KMDW

Flight Track Log - Related Links

Times and Time Zones

All times are in EDT time to prevent confusion due to time zone crossing. See the N450S flight status page for this flight to view local times or setup timezone preferences in your user account.

Time Position Orientation Groundspeed Altitude Reporting Facility
EDT Latitude Longitude Course Direction KTS MPH feet Rate Location/Type
01:57PM 41.4275 -82.6961 271° West 165 190 1,800  Level Cleveland Center
01:58PM 41.4286 -82.7600 272° West 171 197 3,000 600 Climbing Cleveland Center
01:59PM 41.4311 -82.8375 271° West 201 231 3,000 60 Level Cleveland Center
02:01PM 41.4328 -82.9622 279° West 177 204 3,200 540 Climbing Cleveland Center
02:02PM 41.4400 -83.0233 266° West 172 198 4,600 1,440 Climbing Cleveland Center
02:03PM 41.4364 -83.0869 276° West 172 198 6,200 1,620 Climbing Cleveland Center
02:04PM 41.4411 -83.1508 271° West 177 204 7,900 1,500 Climbing Cleveland Center
02:05PM 41.4419 -83.2119 271° West 188 216 9,200 1,380 Climbing Cleveland Center
02:06PM 41.4425 -83.2783 273° West 188 216 10,700 1,500 Climbing Cleveland Center
02:07PM 41.4453 -83.3422 270° West 182 209 12,300 1,500 Climbing Cleveland Center
02:08PM 41.4456 -83.4061 271° West 182 209 13,800 1,500 Climbing Cleveland Center
02:09PM 41.4461 -83.4753 272° West 177 204 15,300 1,560 Climbing Cleveland Center
02:10PM 41.4481 -83.5531 271° West 182 209 17,000 1,560 Climbing Cleveland Center
02:11PM 41.4486 -83.6167 272° West 182 209 18,500 1,500 Climbing Cleveland Center
02:12PM 41.4508 -83.6861 274° West 182 209 20,000 720 Climbing Cleveland Center
02:13PM 41.4550 -83.7639 276° West 195 224 20,000  Level Cleveland Center
02:14PM 41.4611 -83.8472 273° West 223 257 20,000  Level Cleveland Center
02:15PM 41.4647 -83.9389 271° West 244 281 20,000  Level Cleveland Center
02:16PM 41.4661 -84.0306 275° West 250 288 20,000  Level Cleveland Center
02:17PM 41.4717 -84.1222 273° West 250 288 20,000  Level Cleveland Center
02:18PM 41.4753 -84.2056 271° West 255 293 20,000  Level Cleveland Center
02:19PM 41.4764 -84.2972 274° West 255 293 20,000  Level Cleveland Center
02:20PM 41.4817 -84.3917 273° West 255 293 20,000  Level Cleveland Center
02:21PM 41.4850 -84.4778 272° West 249 287 20,000  Level Cleveland Center
02:22PM 41.4881 -84.5725 270° West 249 287 20,000  Level Cleveland Center
02:23PM 41.4883 -84.6894 273° West 242 278 20,000  Level Chicago Center
02:24PM 41.4922 -84.7808 275° West 242 278 20,000  Level Chicago Center
02:25PM 41.4975 -84.8664 271° West 247 284 20,000  Level Chicago Center
02:26PM 41.4992 -84.9578 273° West 252 290 20,000  Level Chicago Center
02:27PM 41.5025 -85.0519 271° West 252 290 20,000  Level Chicago Center
02:28PM 41.5042 -85.1517 271° West 252 290 20,000  Level Chicago Center
02:29PM 41.5056 -85.2431 275° West 252 290 20,000  Level Chicago Center
02:30PM 41.5108 -85.3314 271° West 252 290 20,000  Level Chicago Center
02:31PM 41.5119 -85.4258 273° West 252 290 20,000 -780 Level Chicago Center
02:32PM 41.5153 -85.5228 271° West 252 290 18,500 -1,680 Descending Chicago Center
02:33PM 41.5164 -85.6253 273° West 266 306 16,700 -1,620 Descending Chicago Center
02:34PM 41.5194 -85.7167 272° West 272 313 15,300 -1,260 Descending Chicago Center
02:35PM 41.5225 -85.8164 271° West 272 313 14,200 -1,140 Descending Chicago Center
02:36PM 41.5233 -85.9078 272° West 265 305 13,100 -1,140 Descending Chicago Center
02:37PM 41.5264 -86.0131 270° West 268 308 12,000 -1,080 Descending Chicago Center
02:38PM 41.5269 -86.1047 269° West 268 308 11,000 -540 Descending Chicago Center
02:39PM 41.5253 -86.1961 271° West 268 308 11,000 -540 Level Chicago Center
02:40PM 41.5261 -86.2989 270° West 262 302 10,000 -1,020 Descending Chicago Center
02:41PM 41.5261 -86.3847 268° West 257 296 9,000 -600 Descending Chicago Center
02:42PM 41.5242 -86.4681 272° West 248 285 8,900  Descending Chicago Center
02:43PM 41.5261 -86.5458 268° West 227 261 9,000  Climbing Chicago Center
02:44PM 41.5239 -86.6233 270° West 217 250 9,000  Level Chicago Center
02:45PM 41.5236 -86.7011 268° West 217 250 9,000 -420 Level Chicago Center
02:46PM 41.5214 -86.7844 270° West 217 250 8,200 -960 Descending Chicago Center
02:47PM 41.5211 -86.8706 270° West 222 255 7,100 -1,020 Descending Chicago Center
02:48PM 41.5208 -86.9508 268° West 227 261 6,200 -420 Descending Chicago Center
02:50PM 41.5167 -87.1000 270° West 202 232 6,000 -120 Descending Chicago TRACON
02:51PM 41.5167 -87.1833 270° West 207 238 6,000  Level Chicago TRACON
02:52PM 41.5167 -87.2500 270° West 200 230 6,000 -60 Level Chicago TRACON
02:53PM 41.5167 -87.3333 270° West 199 229 5,900 -600 Descending Chicago TRACON
02:54PM 41.5167 -87.4000 270° West 214 246 4,900 -900 Descending Chicago TRACON
02:55PM 41.5167 -87.4833 270° West 209 241 4,100 -480 Descending Chicago TRACON
02:56PM 41.5167 -87.5500 270° West 207 238 4,000 -60 Descending Chicago TRACON
02:57PM 41.5167 -87.6333 304° West 211 243 4,000  Level Chicago TRACON
02:58PM 41.5500 -87.7000 285° West 207 238 4,000  Level Chicago TRACON
02:59PM 41.5667 -87.7833 270° West 188 216 4,000 -60 Level Chicago TRACON
03:00PM 41.5667 -87.8333 312° West 177 204 3,900 -480 Descending Chicago TRACON
03:01PM 41.6000 -87.8833 346° North 192 221 3,100 -540 Descending Chicago TRACON
03:02PM 41.6500 -87.9000 37° Northeast 185 213 2,900 -60 Descending Chicago TRACON
03:03PM 41.6833 -87.8667 26° Northeast 177 204 3,000 -360 Climbing Chicago TRACON
03:04PM 41.7333 -87.8333 56° Northeast 174 200 2,200 -840 Descending Chicago TRACON
03:05PM 41.7500 -87.8000 56° Northeast 144 166 1,400 -840 Descending Chicago TRACON